TimeEDT,TemperatureF,Dew PointF,Humidity,Sea Level PressureIn,VisibilityMPH,Wind Direction,Wind SpeedMPH,Gust SpeedMPH,PrecipitationIn,Events,Conditions,WindDirDegrees,DateUTC
12:15 AM,78.8,73.4,83,29.90,10.0,South,8.1,-,N/A,,Scattered Clouds,180,2013-07-01 04:15:00
12:35 AM,78.8,73.4,83,29.90,10.0,South,9.2,16.1,N/A,,Scattered Clouds,170,2013-07-01 04:35:00
12:55 AM,78.8,73.4,83,29.90,10.0,South,9.2,-,N/A,,Scattered Clouds,190,2013-07-01 04:55:00
1:15 AM,78.8,73.4,83,29.90,10.0,South,9.2,-,N/A,,Mostly Cloudy,180,2013-07-01 05:15:00
1:35 AM,78.8,73.4,83,29.90,10.0,SSE,6.9,-,N/A,,Mostly Cloudy,160,2013-07-01 05:35:00
1:55 AM,78.8,73.4,83,29.90,10.0,SSE,9.2,-,N/A,,Overcast,160,2013-07-01 05:55:00
2:15 AM,78.8,73.4,83,29.90,3.0,South,11.5,-,0.05,,Overcast,180,2013-07-01 06:15:00
2:35 AM,75.2,71.6,89,29.90,10.0,SSW,8.1,-,0.10,,Mostly Cloudy,200,2013-07-01 06:35:00
2:55 AM,73.4,71.6,94,29.90,10.0,South,4.6,-,0.10,,Scattered Clouds,190,2013-07-01 06:55:00
3:15 AM,73.4,71.6,94,29.90,10.0,South,4.6,-,N/A,,Clear,190,2013-07-01 07:15:00
3:35 AM,73.4,71.6,94,29.90,10.0,South,5.8,-,N/A,,Clear,190,2013-07-01 07:35:00
3:55 AM,73.4,71.6,94,29.89,10.0,South,4.6,-,N/A,,Scattered Clouds,190,2013-07-01 07:55:00
4:15 AM,73.4,71.6,94,29.90,4.0,South,4.6,-,0.01,,Mostly Cloudy,170,2013-07-01 08:15:00
4:35 AM,73.4,71.6,94,29.90,10.0,South,4.6,-,0.01,,Scattered Clouds,170,2013-07-01 08:35:00
4:55 AM,73.4,71.6,94,29.90,10.0,SSE,4.6,-,0.01,,Overcast,160,2013-07-01 08:55:00
5:15 AM,73.4,71.6,94,29.91,10.0,WNW,10.4,-,N/A,,Overcast,290,2013-07-01 09:15:00
5:35 AM,73.4,71.6,94,29.93,7.0,West,4.6,-,0.02,,Overcast,260,2013-07-01 09:35:00
5:55 AM,73.4,71.6,94,29.93,0.5,SW,5.8,-,0.34,,Overcast,220,2013-07-01 09:55:00
6:15 AM,73.4,71.6,94,29.94,0.2,South,15.0,24.2,0.67,,Overcast,190,2013-07-01 10:15:00
6:35 AM,73.4,71.6,94,29.94,0.5,South,9.2,17.3,1.04,,Overcast,190,2013-07-01 10:35:00
6:55 AM,73.4,71.6,94,29.93,1.2,South,6.9,-,1.29,,Overcast,180,2013-07-01 10:55:00
7:15 AM,73.4,71.6,94,29.92,7.0,South,4.6,-,0.05,,Mostly Cloudy,180,2013-07-01 11:15:00
7:35 AM,73.4,71.6,94,29.93,10.0,South,3.5,-,0.05,,Scattered Clouds,190,2013-07-01 11:35:00
7:55 AM,75.2,73.4,94,29.94,10.0,South,6.9,-,0.05,,Scattered Clouds,170,2013-07-01 11:55:00
8:15 AM,77.0,75.2,94,29.93,10.0,South,8.1,-,N/A,,Mostly Cloudy,170,2013-07-01 12:15:00
8:35 AM,78.8,75.2,89,29.94,10.0,South,10.4,-,N/A,,Overcast,170,2013-07-01 12:35:00
8:55 AM,78.8,75.2,89,29.94,4.0,WSW,5.8,10.4,N/A,,Mostly Cloudy,240,2013-07-01 12:55:00
9:15 AM,75.2,73.4,94,29.95,10.0,West,5.8,-,N/A,,Mostly Cloudy,270,2013-07-01 13:15:00
9:35 AM,77.0,75.2,94,29.95,2.0,WSW,4.6,-,0.04,,Overcast,250,2013-07-01 13:35:00
9:55 AM,78.8,75.2,89,29.95,10.0,SSW,3.5,-,0.07,,Scattered Clouds,210,2013-07-01 13:55:00
10:15 AM,78.8,75.2,89,29.95,10.0,SSW,8.1,-,N/A,,Scattered Clouds,200,2013-07-01 14:15:00
10:35 AM,78.8,75.2,89,29.96,7.0,SW,6.9,-,N/A,,Scattered Clouds,230,2013-07-01 14:35:00
10:55 AM,78.8,75.2,89,29.97,4.0,SSW,4.6,-,0.03,,Mostly Cloudy,200,2013-07-01 14:55:00
11:15 AM,78.8,75.2,89,29.97,10.0,South,3.5,-,0.01,,Mostly Cloudy,190,2013-07-01 15:15:00
11:35 AM,78.8,75.2,89,29.96,10.0,South,6.9,-,0.01,,Mostly Cloudy,170,2013-07-01 15:35:00
11:55 AM,78.8,75.2,89,29.97,10.0,South,6.9,-,0.01,,Mostly Cloudy,170,2013-07-01 15:55:00
12:15 PM,78.8,75.2,89,29.97,10.0,South,11.5,-,N/A,,Overcast,190,2013-07-01 16:15:00
12:35 PM,80.6,75.2,84,29.96,10.0,South,11.5,18.4,N/A,,Mostly Cloudy,180,2013-07-01 16:35:00
12:55 PM,80.6,75.2,84,29.96,10.0,South,10.4,17.3,N/A,,Mostly Cloudy,190,2013-07-01 16:55:00
1:15 PM,80.6,75.2,84,29.96,10.0,South,6.9,17.3,N/A,,Mostly Cloudy,190,2013-07-01 17:15:00
1:35 PM,80.6,75.2,84,29.96,7.0,SW,5.8,-,N/A,,Overcast,220,2013-07-01 17:35:00
1:55 PM,82.4,75.2,79,29.95,7.0,South,10.4,-,N/A,,Scattered Clouds,180,2013-07-01 17:55:00
2:15 PM,84.2,75.2,74,29.95,10.0,South,8.1,-,N/A,,Scattered Clouds,190,2013-07-01 18:15:00
2:35 PM,80.6,73.4,79,29.96,10.0,South,9.2,17.3,N/A,,Scattered Clouds,190,2013-07-01 18:35:00
2:55 PM,80.6,73.4,79,29.96,10.0,South,8.1,-,N/A,,Scattered Clouds,190,2013-07-01 18:55:00
3:15 PM,80.6,75.2,84,29.97,10.0,South,10.4,17.3,N/A,,Scattered Clouds,190,2013-07-01 19:15:00
3:35 PM,80.6,75.2,84,29.97,7.0,South,8.1,16.1,N/A,,Scattered Clouds,190,2013-07-01 19:35:00
3:55 PM,80.6,75.2,84,29.97,7.0,South,8.1,-,N/A,,Clear,180,2013-07-01 19:55:00
4:15 PM,80.6,75.2,84,29.98,10.0,SSW,6.9,-,0.01,,Scattered Clouds,200,2013-07-01 20:15:00
4:35 PM,80.6,75.2,84,29.97,10.0,South,9.2,-,0.01,,Clear,180,2013-07-01 20:35:00
4:55 PM,80.6,73.4,79,29.97,10.0,South,12.7,17.3,0.01,,Clear,170,2013-07-01 20:55:00
5:15 PM,80.6,73.4,79,29.97,10.0,South,10.4,16.1,N/A,,Scattered Clouds,170,2013-07-01 21:15:00
5:35 PM,80.6,73.4,79,29.97,10.0,South,13.8,19.6,N/A,,Scattered Clouds,170,2013-07-01 21:35:00
5:55 PM,80.6,73.4,79,29.98,10.0,South,11.5,19.6,N/A,,Clear,170,2013-07-01 21:55:00
6:15 PM,80.6,73.4,79,29.97,10.0,South,11.5,17.3,N/A,,Clear,170,2013-07-01 22:15:00
6:35 PM,78.8,73.4,83,29.98,10.0,South,6.9,-,N/A,,Clear,170,2013-07-01 22:35:00
6:55 PM,78.8,73.4,83,29.99,10.0,South,8.1,-,N/A,,Clear,170,2013-07-01 22:55:00
7:15 PM,78.8,73.4,83,29.99,10.0,SSE,6.9,-,N/A,,Scattered Clouds,160,2013-07-01 23:15:00
7:35 PM,78.8,73.4,83,30.00,10.0,South,6.9,-,N/A,,Scattered Clouds,180,2013-07-01 23:35:00
7:55 PM,78.8,73.4,83,30.00,10.0,SSW,4.6,-,N/A,,Mostly Cloudy,210,2013-07-01 23:55:00
8:15 PM,78.8,73.4,83,29.99,10.0,SSE,11.5,19.6,N/A,,Mostly Cloudy,160,2013-07-02 00:15:00
8:35 PM,78.8,73.4,83,30.00,10.0,SSE,11.5,-,N/A,,Scattered Clouds,160,2013-07-02 00:35:00
8:55 PM,78.8,73.4,83,30.01,10.0,South,10.4,-,N/A,,Scattered Clouds,170,2013-07-02 00:55:00
9:15 PM,78.8,73.4,83,30.01,10.0,South,8.1,17.3,N/A,,Mostly Cloudy,180,2013-07-02 01:15:00
9:35 PM,78.8,73.4,83,30.02,10.0,South,6.9,-,N/A,,Mostly Cloudy,170,2013-07-02 01:35:00
9:55 PM,78.8,73.4,83,30.03,10.0,South,8.1,-,N/A,,Overcast,180,2013-07-02 01:55:00
10:15 PM,77.0,73.4,89,30.03,10.0,South,9.2,-,N/A,,Overcast,180,2013-07-02 02:15:00
10:35 PM,77.0,73.4,89,30.04,10.0,South,10.4,-,N/A,,Overcast,170,2013-07-02 02:35:00
10:55 PM,77.0,71.6,83,30.05,10.0,South,8.1,-,N/A,,Overcast,180,2013-07-02 02:55:00
11:15 PM,77.0,73.4,89,30.05,10.0,South,8.1,-,N/A,,Overcast,180,2013-07-02 03:15:00
11:35 PM,77.0,73.4,89,30.05,10.0,South,9.2,17.3,N/A,,Overcast,180,2013-07-02 03:35:00
11:55 PM,77.0,73.4,89,30.05,10.0,SSW,8.1,-,N/A,,Overcast,200,2013-07-02 03:55:00